Airfield :







YOU CAN JOIN US ON...

 
LOGIN :

Register | Disclaimer

   EN    FR    IT 

 









Legend :    VFR   Marginal VFR   IFR   Intensive IFR   Very Intensive IFR
Visi :
Ceiling :
>= 8 km
>= 3000ft
5 to 8 km
1000 to 3000 ft
1500m to 5 km
500 to 1000 ft
800 to 1500m
200 to 500 ft
< 800m
< 200 ft
Symbols :   Thunderstorms  Fog  Heavy snow  Heavy precipitations  Wind > 20 kt






- Airport Elevation : 288 ft


KLEW - Auburn Lewiston Municipal

CURRENT METAR :
  • 212356Z AUTO 16009KT 10SM CLR 23/21 A2955 RMK AO2 SLP013 T02280206 10278 20228 56010

EXPIRED METARs :
  • 212256Z AUTO 16009G16KT 10SM CLR 24/21 A2956 RMK AO2 SLP016 T02440206
  • 212156Z AUTO 16010G16KT 10SM CLR 25/21 A2956 RMK AO2 SLP014 T02500206

TAF N/A
KZBW FIR / North America



MET'MAP, your aeronautical weather chart ! - Copyright ORBIFLY December 2007 - Disclaimer

ORBIFLY MET'MAP TEAM :

Programming & Development : Alexandra Zaïnal
Concept & original design : Baudouin d'Aumeries
Assistance for programming : Marc-Olivier Méhu
Technical & hardware support : Manuel Goepfert

Contact : metmap@orbifly.com




SOURCES & CREDITS :

   NOAA